Location: Worth Mountain WMA
(34.9569°N, 81.4819°W)
Time: 21:40:59
(UTC-04:00)

Daily predictions for brighter satellites

Satellite Brightness Start Highest point End
(mag) Time Altitude Azimuth Time Altitude Azimuth Time Altitude Azimuth
ATLAS 5 CENTAUR R/B 1.7 21:04:25 10° SSW 21:08:55 66° ESE 21:13:45 10° NE
Spot 2 Rocket 3.6 21:04:47 10° SSE 21:09:50 88° W 21:14:55 10° NNW
Cosmos-2242 3.8 21:06:41 10° NNW 21:10:51 54° W 21:15:01 10° S
Cosmos 1980 3.9 21:13:11 10° NNW 21:18:52 75° WSW 21:24:30 10° SSE
Cosmos 1727 Rocket 4.1 21:13:17 10° S 21:19:31 68° E 21:25:49 10° NNE
Cosmos 2098 Rocket 4.5 21:13:45 10° N 21:21:23 85° E 21:28:36 10° S
Aureole 2 Rocket 3.7 21:22:39 10° NNW 21:26:29 45° WSW 21:30:03 10° S
Cosmos 2237 Rocket 2.5 21:23:05 10° NNW 21:28:40 67° WSW 21:34:13 10° S
Cosmos 1939 Rocket 3.0 21:25:29 10° SSE 21:29:24 61° ENE 21:33:25 10° N
Cosmos 1340 Rocket 2.8 21:27:04 10° S 21:31:03 83° E 21:35:07 10° N
SJ-11-01 4.4 21:27:52 10° SSE 21:32:34 67° ENE 21:37:18 10° N
CZ-4B DEB 3.2 21:30:53 12° SE 21:33:23 38° ENE 21:36:11 10° N
Envisat 3.0 21:29:24 10° SSE 21:34:27 87° WSW 21:39:34 10° NNW
Cosmos 2221 3.1 21:30:37 10° N 21:34:46 40° E 21:38:33 12° SSE
Tiangong 1 3.6 21:35:23 10° NW 21:37:26 18° N 21:39:28 10° NE
Cosmos 2227 Rocket 4.3 21:35:01 10° WSW 21:39:58 31° WNW 21:44:57 10° N
Meteor 1-29 2.9 21:36:57 10° NNE 21:40:23 71° ESE 21:43:49 10° S
Cosmos 1674 3.0 21:38:30 10° SSE 21:42:06 43° E 21:45:41 10° NNE
Okean 3 Rocket 3.6 21:41:27 10° S 21:45:57 74° E 21:50:24 10° N
ARGOS 4.4 21:42:43 14° ESE 21:46:22 27° ENE 21:50:48 10° NNE
SAR-Lupe-4 3.6 21:43:39 13° SSE 21:46:41 63° ENE 21:50:14 10° N
CZ-3B R/B 3.2 21:45:30 10° SW 21:47:55 80° SE 21:54:38 10° NE
SPOT 5 4.3 21:47:02 14° ESE 21:49:53 24° ENE 21:53:50 10° NNE
GPS 2-05 Rocket1 3.3 21:47:16 10° SW 21:50:03 31° SSE 21:51:24 21° ESE
Lacrosse 5 3.6 21:47:21 10° NNW 21:51:18 22° NE 21:55:14 10° E
SL-16 R/B 2.2 21:48:01 10° NNW 21:53:43 80° ENE 21:58:21 16° SSE
Cosmos 1908 3.6 21:50:13 10° N 21:53:58 46° E 21:56:19 20° SSE
USA 32 4.4 21:50:20 10° SSW 21:55:32 68° W 22:00:47 10° N
Cosmos 1570 Rocket 4.1 21:52:07 10° NNW 21:57:24 67° ENE 22:01:16 18° SSE
Cosmos 1766 Rocket 3.9 21:54:51 15° SSE 21:58:04 44° E 22:02:12 10° NNE
Atlas Centaur 2 2.1 21:55:54 10° WSW 21:59:09 29° SSW 22:00:27 22° SSE
KORONAS-FOTON 4.0 21:56:38 17° SSE 21:59:17 47° E 22:02:57 10° NNE
OAO 1 Rocket 4.4 21:59:23 10° W 22:04:46 87° S 22:10:03 10° E
Cosmos 1242 Rocket 2.6 22:01:42 10° N 22:05:23 60° E 22:07:17 26° SSE
SAR-Lupe-1 4.1 22:03:35 19° S 22:06:05 82° WSW 22:09:42 10° NNW
USA 245 4.2 22:07:27 23° E 22:08:28 27° ENE 22:11:50 10° N
Helios 1B rocket 4.0 22:05:57 10° N 22:09:47 37° WNW 22:13:36 10° SW
Cosmos 1743 Rocket 4.5 22:13:15 26° ESE 22:14:15 29° E 22:17:57 10° NNE
Resurs 01 Rocket 4.4 22:12:44 10° WSW 22:14:44 13° W 22:16:45 10° WNW
Delta 2 Rocket 4.1 22:09:47 10° WSW 22:15:22 58° SSE 22:21:03 10° E
Helios 1A 4.3 22:12:02 10° SSW 22:15:51 35° W 22:19:41 10° NNW
Milstar 3 Cent rocket 3.9 22:09:47 10° W 22:16:33 46° S 22:25:01 21° SE
USA 234 3.2 22:12:02 10° NE 22:18:34 72° SE 22:25:05 10° SW
NOAA 11 4.1 22:16:47 21° SSE 22:20:27 82° ENE 22:25:54 10° N
Cosmos 2228 Rocket 4.2 22:16:58 10° NNE 22:20:58 29° ENE 22:22:04 26° ESE
SL-08 RB Rocket 4.2 22:21:53 30° ESE 22:23:37 44° ENE 22:27:59 10° N
Cosmos 468 Rocket 4.3 22:18:58 10° N 22:23:56 48° ENE 22:26:04 30° SE
ERS-1 Rocket 3.0 22:21:46 21° S 22:25:10 79° WSW 22:30:13 10° NNW
Terra 3.6 22:24:00 16° E 22:25:12 17° ENE 22:28:15 10° NNE
Cosmos 2227 4.3 22:20:32 10° SSW 22:26:16 78° WNW 22:32:00 10° NNE
STPSAT 2 (USA 217) 4.5 22:22:31 12° SSW 22:26:41 77° ESE 22:31:15 10° NNE
Cosmos 1459 Rocket 4.0 22:21:25 10° N 22:27:42 83° W 22:32:18 19° S
H-2A ROCKET BODY 2.9 22:26:51 10° SSW 22:30:06 32° SSE 22:39:40 10° E
Sakura Rocket 4.3 22:24:26 10° WSW 22:32:27 52° S 22:35:22 30° SE
Cosmos 2100 Rocket 4.3 22:27:17 10° NNW 22:33:33 69° W 22:38:36 17° S
Nimbus 7 Rocket 4.4 22:28:02 10° NNE 22:33:59 61° ESE 22:37:30 25° S
Cosmos 332 Rocket 4.2 22:30:44 10° N 22:35:31 50° ENE 22:37:02 37° ESE
MetOp-B 4.2 22:35:14 27° S 22:38:15 80° WSW 22:43:38 10° NNW
Cosmos 2123 Rocket 3.9 22:36:04 23° S 22:40:08 77° E 22:46:19 10° N
Cosmos 2061 Rocket 4.2 22:34:22 10° N 22:40:44 73° W 22:45:13 21° S
H-2A R/B 2.3 22:39:05 36° SE 22:41:02 55° ENE 22:46:19 10° N
Cosmos 220 Rocket 3.9 22:39:19 27° SSW 22:41:43 86° ESE 22:46:07 10° NNE
Cosmos 2173 Rocket 4.4 22:37:16 10° NNW 22:43:21 62° W 22:47:55 19° SSW
Cosmos 1626 3.9 22:44:38 20° ENE 22:44:38 20° ENE 22:46:30 10° NE
Meteor 2-10 4.3 22:38:58 10° N 22:44:32 59° E 22:46:32 38° SE
Cosmos 2058 3.9 22:44:53 32° E 22:44:53 32° E 22:48:19 10° NNE
Cosmos 2263 Rocket 2.2 22:46:57 38° SSE 22:48:42 53° ESE 22:54:07 10° NNE
Cosmos 1726 2.0 22:48:01 10° N 22:51:42 77° W 22:52:04 68° SSW
SL-14 R/B 3.4 22:53:30 48° SSW 22:54:30 73° W 22:58:27 10° N
Cosmos 1300 2.5 22:51:35 10° N 22:55:25 85° E 22:55:37 80° SSE
RESURS DK-1 2.2 22:52:15 10° NNW 22:56:27 90° ESE 22:56:54 70° SSE
EO 1 Delta rocket 3.7 22:55:37 49° SSE 22:56:55 86° ENE 23:01:32 10° N
Cosmos 1328 4.3 23:02:47 41° SW 23:03:52 56° W 23:07:51 10° N
Meteor 2-2 Rocket 4.4 22:59:30 10° NNW 23:05:18 76° W 23:07:36 39° S
Cosmos 1725 Rocket 4.0 23:00:37 10° N 23:06:51 83° W 23:09:19 39° S
ERBS 3.6 23:03:47 10° NNW 23:06:28 34° NNE 23:06:28 34° NNE
Cosmos 1356 4.2 23:11:37 49° N 23:11:37 49° N 23:14:16 10° N
Cosmos 2151 2.8 23:11:00 84° SE 23:11:06 85° E 23:15:25 10° N
Tiangong 1 3.5 23:11:34 10° NW 23:13:24 18° N 23:13:24 18° N
Cosmos 1354 Rocket 3.9 23:16:06 64° SE 23:16:28 66° ESE 23:21:39 10° NNE
Cosmos 1500 Rocket 3.9 23:18:02 53° SW 23:18:47 63° W 23:23:13 10° N
Cosmos 1603 4.1 23:15:31 10° NNW 23:20:59 52° WSW 23:22:24 42° SSW
Cosmos 1814 Rocket 4.2 23:18:44 10° NNW 23:24:00 63° WSW 23:24:55 53° SSW
DMSP B5D2-2 4.2 23:19:26 10° N 23:24:38 68° WNW 23:26:17 43° SW
Cosmos 371 Rocket 3.5 23:20:38 10° NNW 23:25:23 60° WSW 23:25:49 58° SW
CZ-4C R/B 3.5 23:28:14 24° ENE 23:28:14 24° ENE 23:31:03 10° NE
ARGOS 4.4 23:24:14 25° SW 23:26:24 34° W 23:31:18 10° NNW
SPOT 5 4.2 23:26:16 27° SW 23:27:42 32° W 23:32:11 10° NNW
Cosmos 1455 3.7 23:25:10 10° N 23:27:33 30° NE 23:27:33 30° NE
CARTOSAT-1 3.6 23:29:27 74° N 23:29:27 74° N 23:33:25 10° N
Cosmos 841 Rocket 3.3 23:28:21 10° NNW 23:33:37 87° WSW 23:33:53 80° S
Lacrosse 5 2.0 23:29:36 10° NW 23:34:30 60° WSW 23:34:30 60° WSW
Cosmos 1763 Rocket 3.5 23:30:08 10° NNW 23:35:10 63° WSW 23:35:29 61° SW
Cosmos 1943 3.0 23:30:30 10° NNW 23:36:11 84° WSW 23:36:46 72° S
SPOT 1/Viking Rocket 4.4 23:35:09 35° SW 23:36:15 39° W 23:41:04 10° NNW
SL-19 R/B 4.1 23:31:29 10° NNE 23:36:54 89° WNW 23:37:45 66° SSW
Cosmos 1805 Rocket 4.4 23:39:13 40° NE 23:39:13 40° NE 23:42:14 10° NNE
IGS 5A 4.2 23:48:26 50° NW 23:48:26 50° NW 23:51:47 10° NNW
H-2A R/B 2.6 23:51:01 57° NW 23:51:01 57° NW 23:54:29 10° NNW
Cosmos 1151 Rocket 4.1 23:46:44 10° NNW 23:50:35 40° W 23:50:35 40° W
SME Rocket 4.2 23:52:50 35° NNE 23:52:50 35° NNE 23:55:53 10° N
